カタログに戻る

STARLINK-5025

運用中通信VLEO
NORAD 53920·PAYLOAD·🇺🇸 United States

打ち上げ Sep 24, 2022 から Cape Canaveral Space Force Station

Loading…

次のパス (今後24時間)

TLE

最新Source: CelesTrak SupGP

元期: Sep 15, 2026, 01:42 UTC

1 53920C 22119AL  26258.07131944 -.00006827  00000+0 -21953-3 0  2581
2 53920  53.1590 173.1180 0001561  87.9813 164.3967 15.31704831    14

AllMySatでSTARLINK-5025をリアルタイム追跡

Download on the App Store